SCP
0 0 0 0 0 0 0 0 0 0 0 0 0 0 0 0 0 0 0 0 0 0 0 0 0 0 0 0 0 0 0 0 0 0 0 0 0 0 0 0 0 0 0 0
0 0 0 0 0 0 0 0 0 0 0 0 0 0 0 0 0 0 0 0 0 0 0 0 0 0 0 0 0 0 0 0 0 0 0 0 0 0 0 0 0 0 0 0
0 0 0 0 0 0 0 0 0 0 0 0 0 0 0 0 0 0 0 0 0 0 0 0 0 0 0 0 0 0 0 0 0 0 0 0 0 0 0 0 0 0 0 0
0 0 0 0 0 0 0 0 0 0 0 0 0 0 0 0 0 0 0 0 0 0 0 0 0 0 0 0 0 0 0 0 0 0 0 0 0 0 0 0 0 0 0 0
0 0 0 0 0 0 0 0 0 0 0 0 0 0 0 0 0 0 0 0 0 0 0 0 0 0 0 0 0 0 0 0 0 0 0 0 0 0 0 0 0 0 0 0
0 0 0 0 0 0 0 0 0 0 0 0 0 0 0 0 0 0 0 0 0 0 0 0 0 0 0 0 0 0 0 0 0 0 0 0 0 0 0 0 0 0 0 0
0 0 0 0 0 0 0 0 0 0 0 0 0 -0 0 0 0 0 0 0 0 0 0 0 0 0 0 0 0 0 0 0 0 0 0 0 0 0 0 0 0 0 0 0
0 0 0 0 0 0 0 0 0 0 0 0 0 0 0 0 0 0 0 0 0 0 0 0 0 0 0 0 0 0 0 0 0 0 0 0 0 0 0 0 0 0 0 0
0 0 0 0 0 0 0 0 0 0 0 0 -0 0 0 0 0 0 0 0 0 0 0 0 0 0 0 0 0 0 0 0 0 0 0 0 0 0 0 0 0 0 0 0
0 0 0 0 0 0 0 0 0 0 0 0 0 0 0 0 0 0 0 0 0 0 0 0 0 0 0 0 0 0 0 0 0 0 0 0 0 0 0 0 0 0 0 0
0 0 0 0 0 0 0 0 0 0 0 0 0 0 0 0 0 0 0 0 0 0 0 0 0 0 0 0 0 0 0 0 0 0 0 0 0 0 0 0 0 0 0 0
0 0 0 0 0 0 0 0 0 0 0 0 0 0 0 0 0 0 0 0 0 0 0 0 0 0 0 0 0 0 0 0 0 0 0 0 0 0 0 0 0 0 0 0
0 0 0 0 0 0 0 0 0 0 0 0 0 0 0 0 0 0 0 0 0 0 0 0 0 0 0 0 0 0 0 0 0 0 0 0 0 0 0 0 0 0 0 0
0 0 0 0 0 0 0 0 0 0 0 0 0 0 0 0 0 0 0 0 0 0 0 0 0 0 0 0 0 0 0 0 0 0 0 0 0 0 0 0 0 0 0 0
0 0 0 0 0 0 0 0 0 0 0 0 0 0 0 0 0 0 0 0 0 0 0 0 0 0 0 0 0 0 0 0 0 0 0 0 0 0 0 0 0 0 0 0
0 0 0 0 0 0 0 0 0 0 0 0 0 0 0 0 0 0 0 0 0 0 0 0 0 0 0 0 0 0 0 0 0 0 0 0 0 0 0 0 0 0 0 0
0 0 0 0 0 0 0 0 0 0 0 0 0 0 0 0 0 0 0 0 0 0 0 0 0 0 0 0 0 0 0 0 0 0 0 0 0 0 0 0 0 0 0 0
0 0 0 0 0 0 0 0 0 0 0 0 0 0 0 0 0 0 0 0 0 0 0 0 0 0 0 0 0 0 0 0 0 0 0 0 0 0 0 0 0 0 0 0
0 0 0 0 0 0 0 0 0 0 0 0 0 0 0 0 0 0 0 0 0 0 0 0 0 0 0 0 0 0 0 0 0 0 0 0 0 0 0 0 0 0 0 0
0 0 0 0 0 0 0 0 0 0 0 0 0 0 0 0 0 0 0 0 0 0 0 0 0 0 0 0 0 0 0 0 0 0 0 0 0 0 0 0 0 0 0 0
0 0 0 0 0 0 0 0 0 0 0 0 0 0 0 0 0 0 0 0 0 0 0 0 0 0 0 0 0 0 0 0 0 0 0 0 0 0 0 0 0 0 0 0
0 0 0 0 0 0 0 0 0 0 0 0 0 0 0 0 0 0 0 0 0 0 0 0 0 0 0 0 0 0 0 0 0 0 0 0 0 0 0 0 0 0 0 0
0 0 0 0 0 0 0 0 0 0 0 0 0 0 0 0 0 0 0 0 0 0 0 0 0 0 0 0 0 0 0 0 0 0 0 0 0 0 0 0 0 0 0 -0
0 0 0 0 0 0 0 0 0 0 0 0 0 0 0 0 0 0 0 0 0 0 0 0 0 0 0 0 0 0 0 0 0 0 0 0 0 0 0 0 0 0 -0 0
0 0 0 0 0 0 0 0 0 0 0 0 0 0 0 0 0 0 0 0 0 0 0 0 0 0 0 0 0 0 0 0 0 0 0 0 0 0 0 0 0 -0 -0 -0
0 0 0 0 0 0 0 0 0 0 0 0 0 0 0 0 0 0 0 0 0 0 0 0 0 0 0 0 0 0 0 0 0 0 0 0 0 0 0 0 0 -0 0 0
0 0 0 0 0 0 0 0 0 0 0 0 0 0 0 0 0 0 0 0 0 0 0 0 0 0 0 0 0 0 0 0 0 0 0 0 0 0 0 0 -0 0 0 0
Wind_Speed_500mb
6 8 8 9 12 18 13 10 13 6 13 4 3 11 15 21 20 22 42 44 42 37 29 22 9 7 15 27 36 43 45 43 44 48 50 51 51 52 53 56 59 62 66 67
3 7 8 2 4 13 7 5 6 7 9 6 6 4 3 7 12 31 43 45 39 33 25 12 4 11 25 35 41 45 43 43 47 50 49 50 50 52 55 58 61 65 67 69
5 5 5 7 16 14 9 8 11 11 6 4 6 8 6 2 12 28 39 43 42 32 18 8 5 21 36 43 43 41 41 44 47 48 49 51 53 56 60 65 68 71 71 71
5 4 3 4 5 9 12 7 9 13 8 6 7 8 3 4 11 22 40 42 36 26 16 5 16 34 38 40 37 37 41 45 45 47 51 54 58 61 64 67 71 73 74 73
7 7 4 3 7 12 9 3 5 7 5 8 3 2 8 10 15 22 34 36 29 21 10 14 30 40 46 34 34 39 43 44 46 50 54 58 61 64 65 70 72 74 73 73
5 7 11 3 2 7 8 3 3 9 6 4 4 4 7 15 12 11 19 28 21 13 17 23 28 32 29 31 37 42 45 47 47 49 54 58 61 65 68 68 72 73 75 74
5 4 11 8 4 7 8 8 12 16 12 9 6 5 20 20 12 10 15 19 21 20 19 22 30 31 30 36 41 45 45 46 49 52 56 60 63 63 68 73 74 75 78 80
6 3 13 1 5 11 12 20 20 10 6 12 13 15 15 14 14 16 21 23 19 17 19 29 31 29 35 39 42 44 47 50 54 57 60 63 65 70 73 74 76 78 80 82
13 8 2 7 20 28 20 22 9 3 2 6 10 13 15 18 21 23 25 24 21 20 27 25 27 33 37 40 44 48 52 55 59 63 65 66 69 72 75 75 76 78 73 75
6 4 7 22 23 13 9 7 6 8 9 11 10 13 19 23 25 29 28 24 23 28 25 24 28 33 37 40 45 51 56 59 64 68 71 71 73 76 76 74 75 70 69 72
2 3 5 18 8 12 16 15 11 10 13 16 20 21 21 21 23 26 25 25 26 22 23 26 30 34 36 41 47 53 59 65 69 71 71 75 78 78 74 70 55 61 68 71
9 18 9 15 12 10 12 5 6 13 19 25 28 26 25 23 24 29 28 26 23 23 26 29 33 35 37 41 48 56 65 68 68 69 72 76 80 86 77 63 55 58 57 57
9 24 13 11 14 9 3 9 17 23 25 27 29 30 26 27 29 28 26 22 22 25 28 32 35 37 39 46 53 60 63 65 67 67 71 75 78 78 76 71 58 63 56 54
11 17 14 19 7 6 12 16 22 26 28 28 30 32 27 23 23 24 21 21 24 27 30 35 40 43 46 55 61 59 59 59 63 69 70 73 72 67 66 67 68 71 72 61
13 8 10 2 10 19 18 21 28 30 27 25 23 22 21 23 22 20 20 21 26 30 35 40 45 49 54 57 58 59 59 63 67 68 66 62 67 63 66 63 64 71 75 73
13 10 6 14 16 13 22 29 34 30 23 18 17 18 19 19 18 17 19 26 31 36 40 45 49 54 56 57 58 60 63 65 63 62 61 64 64 64 62 63 68 69 72 73
6 15 18 9 13 22 28 28 29 24 18 19 19 19 20 19 19 20 23 28 35 40 42 46 55 55 57 59 60 65 67 65 60 59 60 63 64 63 63 66 67 74 71 72
7 6 4 17 25 29 28 27 25 24 23 21 20 21 20 20 22 26 29 33 37 41 43 52 55 59 60 60 63 63 61 58 55 61 65 66 62 61 64 66 69 67 72 69
11 11 18 23 26 29 30 28 26 24 25 24 23 22 23 26 27 30 32 37 42 50 54 55 57 59 61 60 59 57 52 55 62 66 66 61 63 61 66 66 64 64 64 67
5 12 23 28 31 33 32 28 28 27 26 27 26 27 27 27 30 33 38 44 45 51 56 58 60 62 61 60 56 50 57 61 66 69 65 57 63 64 61 62 57 62 62 62
15 17 23 31 36 38 37 32 30 30 28 30 30 29 31 31 34 39 45 52 49 51 56 58 62 63 61 58 52 58 62 65 66 65 64 62 61 61 61 62 59 59 63 57
27 30 29 35 38 41 37 33 30 29 31 32 32 34 36 37 39 43 44 50 55 57 61 64 65 61 58 52 57 62 65 64 61 59 58 58 61 62 60 59 64 61 60 62
30 33 37 39 41 43 39 36 34 32 33 34 35 36 38 40 41 46 55 52 56 59 62 63 60 59 57 55 61 63 60 58 56 56 58 60 57 57 62 64 60 59 61 61
28 35 39 38 43 46 42 33 30 30 32 33 35 36 38 42 45 44 50 56 58 61 61 61 60 58 55 59 58 57 57 57 58 59 58 56 62 65 61 59 60 60 60 54
31 34 35 40 45 39 30 26 28 28 30 30 30 32 36 41 48 53 55 58 59 59 62 60 58 58 58 56 56 56 57 58 60 55 58 62 58 60 60 62 61 57 55 57
31 30 33 36 32 27 25 25 26 26 27 27 27 31 36 41 47 53 57 58 60 59 60 60 58 57 57 56 56 57 60 62 62 62 56 59 61 63 61 59 57 54 51 50
28 28 29 26 23 21 23 23 20 19 23 27 32 35 41 47 51 54 56 57 57 58 58 58 57 56 57 59 60 62 64 65 64 59 58 61 60 59 55 52 51 51 50 48
Wind_Direction_500mb
85 127 134 178 181 173 182 171 177 226 196 270 219 242 269 287 271 220 198 197 200 201 205 213 225 323 334 329 328 329 325 323 326 327 328 330 332 335 336 336 336 335 333 331
77 49 70 129 172 169 190 204 244 218 264 253 36 7 342 292 245 209 201 205 205 204 207 200 246 327 337 336 331 326 324 324 327 327 328 330 332 333 332 331 332 333 333 332
208 53 62 312 216 187 178 193 159 191 192 17 45 91 78 14 240 225 212 210 210 207 202 200 321 339 337 335 328 321 321 325 326 327 328 330 333 334 334 334 333 334 332 330
151 76 189 223 315 157 128 65 116 92 100 131 163 146 152 302 248 235 227 216 207 202 196 225 333 336 335 329 318 319 323 326 327 329 331 333 333 333 333 332 332 331 329 329
166 194 298 47 187 149 160 118 30 91 70 68 71 330 303 287 267 250 233 214 206 200 220 306 328 334 330 319 321 321 322 326 329 331 330 330 330 331 331 330 329 329 328 327
87 150 215 186 149 96 95 222 348 128 91 36 124 29 250 328 324 285 223 211 204 231 274 304 319 324 321 317 317 318 324 329 329 328 327 328 328 329 329 329 328 328 327 328
150 219 289 248 225 100 124 195 139 119 114 90 144 219 329 333 294 232 207 206 228 245 282 311 326 325 315 318 317 321 323 325 326 327 326 326 326 327 329 331 330 330 329 327
99 108 263 258 88 168 144 137 142 131 50 6 352 330 308 278 247 224 219 222 235 278 311 318 318 315 312 314 316 319 323 325 326 326 326 327 327 330 332 330 330 329 328 326
180 217 227 67 123 126 133 147 171 334 300 268 267 283 290 281 260 239 237 252 270 288 306 310 311 307 312 317 318 323 324 324 325 326 326 326 327 328 330 332 332 330 329 325
125 176 141 134 125 135 153 150 190 238 245 259 274 301 297 280 259 251 254 265 276 292 296 298 303 310 316 321 322 320 320 323 326 325 325 326 326 330 331 330 329 327 322 317
283 154 124 183 180 187 197 221 234 255 264 263 274 290 292 276 262 261 264 274 286 285 287 299 307 313 319 319 316 318 322 324 324 323 323 323 324 327 327 325 321 316 314 315
215 177 150 173 179 195 200 217 263 298 293 283 282 280 279 279 284 279 277 277 273 280 296 304 308 315 319 318 319 320 320 321 320 319 321 322 322 321 324 324 318 314 314 316
201 166 136 160 163 151 260 295 304 305 294 283 278 278 275 275 279 275 269 262 273 287 299 307 312 318 321 318 318 318 318 316 315 318 319 320 321 324 322 323 319 323 322 322
156 158 132 151 161 297 298 295 296 291 282 274 272 272 267 253 258 255 255 267 280 295 308 312 314 317 317 315 314 315 313 314 315 317 319 321 323 318 316 318 320 324 331 327
146 143 126 129 312 306 299 305 309 313 309 295 273 252 241 236 238 246 259 278 296 308 310 308 310 313 313 314 314 315 316 317 319 319 319 317 317 321 322 321 317 319 324 327
173 180 270 295 303 305 311 316 314 311 298 281 254 236 231 234 242 260 280 294 299 303 307 310 312 314 315 315 316 317 318 318 318 318 319 319 321 320 318 317 318 319 320 322
255 258 280 284 309 315 313 306 298 289 276 265 253 239 235 242 258 276 286 292 297 303 310 314 314 316 316 319 320 317 316 318 321 318 323 324 320 316 318 318 316 316 321 325
197 154 340 327 317 305 299 291 283 271 263 263 249 239 240 257 273 280 286 290 298 304 313 314 315 316 317 317 315 316 317 319 321 321 322 319 316 316 312 312 317 316 319 323
109 12 334 315 309 305 301 292 283 272 261 254 243 243 252 262 273 282 290 299 309 313 317 315 314 313 315 317 317 317 318 321 321 320 317 312 312 314 312 313 314 315 315 317
209 322 321 316 313 309 302 292 282 271 256 243 241 247 260 272 281 290 297 304 312 313 311 314 316 317 318 319 321 320 320 316 315 315 315 311 307 312 310 309 311 313 317 321
258 277 303 313 312 307 300 289 275 264 251 245 252 263 272 277 285 293 301 305 314 311 312 314 315 319 320 320 322 311 310 312 315 314 312 311 312 314 314 316 317 319 321 322
283 286 294 303 303 303 298 285 271 257 249 253 262 270 276 283 290 295 300 306 312 315 317 317 320 320 318 315 308 309 312 313 313 312 311 313 315 314 315 318 319 321 322 321
283 283 283 291 299 299 291 279 270 262 258 261 268 273 279 286 294 302 307 313 313 314 315 316 317 317 315 310 308 312 311 312 313 315 314 313 313 314 316 316 316 314 316 318
273 279 282 286 293 292 286 280 269 262 261 263 267 275 284 293 296 302 305 310 313 314 316 317 316 315 314 310 312 312 314 316 315 313 314 315 313 310 312 313 314 315 315 316
275 280 282 294 292 288 280 267 263 264 265 268 274 282 290 297 302 310 312 313 314 315 316 319 318 316 313 315 316 315 313 314 316 316 307 305 309 313 314 312 312 312 312 306
267 273 288 294 285 277 270 266 268 271 274 276 282 288 295 301 306 308 311 315 317 317 316 317 318 319 318 316 316 317 317 317 317 316 311 309 311 310 309 309 309 309 310 311
266 282 291 282 274 273 272 271 270 274 282 291 298 302 308 311 312 313 315 316 315 316 316 318 319 318 319 318 318 319 319 319 318 314 306 306 308 308 308 308 307 307 307 309
Wind_Speed_850mb
6 8 8 9 12 18 13 10 13 6 13 4 3 11 15 21 20 22 42 44 42 37 29 22 9 7 15 27 36 43 45 43 44 48 50 51 51 52 53 56 59 62 66 67
3 7 8 2 4 13 7 5 6 7 9 6 6 4 3 7 12 31 43 45 39 33 25 12 4 11 25 35 41 45 43 43 47 50 49 50 50 52 55 58 61 65 67 69
5 5 5 7 16 14 9 8 11 11 6 4 6 8 6 2 12 28 39 43 42 32 18 8 5 21 36 43 43 41 41 44 47 48 49 51 53 56 60 65 68 71 71 71
5 4 3 4 5 9 12 7 9 13 8 6 7 8 3 4 11 22 40 42 36 26 16 5 16 34 38 40 37 37 41 45 45 47 51 54 58 61 64 67 71 73 74 73
7 7 4 3 7 12 9 3 5 7 5 8 3 2 8 10 15 22 34 36 29 21 10 14 30 40 46 34 34 39 43 44 46 50 54 58 61 64 65 70 72 74 73 73
5 7 11 3 2 7 8 3 3 9 6 4 4 4 7 15 12 11 19 28 21 13 17 23 28 32 29 31 37 42 45 47 47 49 54 58 61 65 68 68 72 73 75 74
5 4 11 8 4 7 8 8 12 16 12 9 6 5 20 20 12 10 15 19 21 20 19 22 30 31 30 36 41 45 45 46 49 52 56 60 63 63 68 73 74 75 78 80
6 3 13 1 5 11 12 20 20 10 6 12 13 15 15 14 14 16 21 23 19 17 19 29 31 29 35 39 42 44 47 50 54 57 60 63 65 70 73 74 76 78 80 82
13 8 2 7 20 28 20 22 9 3 2 6 10 13 15 18 21 23 25 24 21 20 27 25 27 33 37 40 44 48 52 55 59 63 65 66 69 72 75 75 76 78 73 75
6 4 7 22 23 13 9 7 6 8 9 11 10 13 19 23 25 29 28 24 23 28 25 24 28 33 37 40 45 51 56 59 64 68 71 71 73 76 76 74 75 70 69 72
2 3 5 18 8 12 16 15 11 10 13 16 20 21 21 21 23 26 25 25 26 22 23 26 30 34 36 41 47 53 59 65 69 71 71 75 78 78 74 70 55 61 68 71
9 18 9 15 12 10 12 5 6 13 19 25 28 26 25 23 24 29 28 26 23 23 26 29 33 35 37 41 48 56 65 68 68 69 72 76 80 86 77 63 55 58 57 57
9 24 13 11 14 9 3 9 17 23 25 27 29 30 26 27 29 28 26 22 22 25 28 32 35 37 39 46 53 60 63 65 67 67 71 75 78 78 76 71 58 63 56 54
11 17 14 19 7 6 12 16 22 26 28 28 30 32 27 23 23 24 21 21 24 27 30 35 40 43 46 55 61 59 59 59 63 69 70 73 72 67 66 67 68 71 72 61
13 8 10 2 10 19 18 21 28 30 27 25 23 22 21 23 22 20 20 21 26 30 35 40 45 49 54 57 58 59 59 63 67 68 66 62 67 63 66 63 64 71 75 73
13 10 6 14 16 13 22 29 34 30 23 18 17 18 19 19 18 17 19 26 31 36 40 45 49 54 56 57 58 60 63 65 63 62 61 64 64 64 62 63 68 69 72 73
6 15 18 9 13 22 28 28 29 24 18 19 19 19 20 19 19 20 23 28 35 40 42 46 55 55 57 59 60 65 67 65 60 59 60 63 64 63 63 66 67 74 71 72
7 6 4 17 25 29 28 27 25 24 23 21 20 21 20 20 22 26 29 33 37 41 43 52 55 59 60 60 63 63 61 58 55 61 65 66 62 61 64 66 69 67 72 69
11 11 18 23 26 29 30 28 26 24 25 24 23 22 23 26 27 30 32 37 42 50 54 55 57 59 61 60 59 57 52 55 62 66 66 61 63 61 66 66 64 64 64 67
5 12 23 28 31 33 32 28 28 27 26 27 26 27 27 27 30 33 38 44 45 51 56 58 60 62 61 60 56 50 57 61 66 69 65 57 63 64 61 62 57 62 62 62
15 17 23 31 36 38 37 32 30 30 28 30 30 29 31 31 34 39 45 52 49 51 56 58 62 63 61 58 52 58 62 65 66 65 64 62 61 61 61 62 59 59 63 57
27 30 29 35 38 41 37 33 30 29 31 32 32 34 36 37 39 43 44 50 55 57 61 64 65 61 58 52 57 62 65 64 61 59 58 58 61 62 60 59 64 61 60 62
30 33 37 39 41 43 39 36 34 32 33 34 35 36 38 40 41 46 55 52 56 59 62 63 60 59 57 55 61 63 60 58 56 56 58 60 57 57 62 64 60 59 61 61
28 35 39 38 43 46 42 33 30 30 32 33 35 36 38 42 45 44 50 56 58 61 61 61 60 58 55 59 58 57 57 57 58 59 58 56 62 65 61 59 60 60 60 54
31 34 35 40 45 39 30 26 28 28 30 30 30 32 36 41 48 53 55 58 59 59 62 60 58 58 58 56 56 56 57 58 60 55 58 62 58 60 60 62 61 57 55 57
31 30 33 36 32 27 25 25 26 26 27 27 27 31 36 41 47 53 57 58 60 59 60 60 58 57 57 56 56 57 60 62 62 62 56 59 61 63 61 59 57 54 51 50
28 28 29 26 23 21 23 23 20 19 23 27 32 35 41 47 51 54 56 57 57 58 58 58 57 56 57 59 60 62 64 65 64 59 58 61 60 59 55 52 51 51 50 48
Wind_Direction_850mb
85 127 134 178 181 173 182 171 177 226 196 270 219 242 269 287 271 220 198 197 200 201 205 213 225 323 334 329 328 329 325 323 326 327 328 330 332 335 336 336 336 335 333 331
77 49 70 129 172 169 190 204 244 218 264 253 36 7 342 292 245 209 201 205 205 204 207 200 246 327 337 336 331 326 324 324 327 327 328 330 332 333 332 331 332 333 333 332
208 53 62 312 216 187 178 193 159 191 192 17 45 91 78 14 240 225 212 210 210 207 202 200 321 339 337 335 328 321 321 325 326 327 328 330 333 334 334 334 333 334 332 330
151 76 189 223 315 157 128 65 116 92 100 131 163 146 152 302 248 235 227 216 207 202 196 225 333 336 335 329 318 319 323 326 327 329 331 333 333 333 333 332 332 331 329 329
166 194 298 47 187 149 160 118 30 91 70 68 71 330 303 287 267 250 233 214 206 200 220 306 328 334 330 319 321 321 322 326 329 331 330 330 330 331 331 330 329 329 328 327
87 150 215 186 149 96 95 222 348 128 91 36 124 29 250 328 324 285 223 211 204 231 274 304 319 324 321 317 317 318 324 329 329 328 327 328 328 329 329 329 328 328 327 328
150 219 289 248 225 100 124 195 139 119 114 90 144 219 329 333 294 232 207 206 228 245 282 311 326 325 315 318 317 321 323 325 326 327 326 326 326 327 329 331 330 330 329 327
99 108 263 258 88 168 144 137 142 131 50 6 352 330 308 278 247 224 219 222 235 278 311 318 318 315 312 314 316 319 323 325 326 326 326 327 327 330 332 330 330 329 328 326
180 217 227 67 123 126 133 147 171 334 300 268 267 283 290 281 260 239 237 252 270 288 306 310 311 307 312 317 318 323 324 324 325 326 326 326 327 328 330 332 332 330 329 325
125 176 141 134 125 135 153 150 190 238 245 259 274 301 297 280 259 251 254 265 276 292 296 298 303 310 316 321 322 320 320 323 326 325 325 326 326 330 331 330 329 327 322 317
283 154 124 183 180 187 197 221 234 255 264 263 274 290 292 276 262 261 264 274 286 285 287 299 307 313 319 319 316 318 322 324 324 323 323 323 324 327 327 325 321 316 314 315
215 177 150 173 179 195 200 217 263 298 293 283 282 280 279 279 284 279 277 277 273 280 296 304 308 315 319 318 319 320 320 321 320 319 321 322 322 321 324 324 318 314 314 316
201 166 136 160 163 151 260 295 304 305 294 283 278 278 275 275 279 275 269 262 273 287 299 307 312 318 321 318 318 318 318 316 315 318 319 320 321 324 322 323 319 323 322 322
156 158 132 151 161 297 298 295 296 291 282 274 272 272 267 253 258 255 255 267 280 295 308 312 314 317 317 315 314 315 313 314 315 317 319 321 323 318 316 318 320 324 331 327
146 143 126 129 312 306 299 305 309 313 309 295 273 252 241 236 238 246 259 278 296 308 310 308 310 313 313 314 314 315 316 317 319 319 319 317 317 321 322 321 317 319 324 327
173 180 270 295 303 305 311 316 314 311 298 281 254 236 231 234 242 260 280 294 299 303 307 310 312 314 315 315 316 317 318 318 318 318 319 319 321 320 318 317 318 319 320 322
255 258 280 284 309 315 313 306 298 289 276 265 253 239 235 242 258 276 286 292 297 303 310 314 314 316 316 319 320 317 316 318 321 318 323 324 320 316 318 318 316 316 321 325
197 154 340 327 317 305 299 291 283 271 263 263 249 239 240 257 273 280 286 290 298 304 313 314 315 316 317 317 315 316 317 319 321 321 322 319 316 316 312 312 317 316 319 323
109 12 334 315 309 305 301 292 283 272 261 254 243 243 252 262 273 282 290 299 309 313 317 315 314 313 315 317 317 317 318 321 321 320 317 312 312 314 312 313 314 315 315 317
209 322 321 316 313 309 302 292 282 271 256 243 241 247 260 272 281 290 297 304 312 313 311 314 316 317 318 319 321 320 320 316 315 315 315 311 307 312 310 309 311 313 317 321
258 277 303 313 312 307 300 289 275 264 251 245 252 263 272 277 285 293 301 305 314 311 312 314 315 319 320 320 322 311 310 312 315 314 312 311 312 314 314 316 317 319 321 322
283 286 294 303 303 303 298 285 271 257 249 253 262 270 276 283 290 295 300 306 312 315 317 317 320 320 318 315 308 309 312 313 313 312 311 313 315 314 315 318 319 321 322 321
283 283 283 291 299 299 291 279 270 262 258 261 268 273 279 286 294 302 307 313 313 314 315 316 317 317 315 310 308 312 311 312 313 315 314 313 313 314 316 316 316 314 316 318
273 279 282 286 293 292 286 280 269 262 261 263 267 275 284 293 296 302 305 310 313 314 316 317 316 315 314 310 312 312 314 316 315 313 314 315 313 310 312 313 314 315 315 316
275 280 282 294 292 288 280 267 263 264 265 268 274 282 290 297 302 310 312 313 314 315 316 319 318 316 313 315 316 315 313 314 316 316 307 305 309 313 314 312 312 312 312 306
267 273 288 294 285 277 270 266 268 271 274 276 282 288 295 301 306 308 311 315 317 317 316 317 318 319 318 316 316 317 317 317 317 316 311 309 311 310 309 309 309 309 310 311
266 282 291 282 274 273 272 271 270 274 282 291 298 302 308 311 312 313 315 316 315 316 316 318 319 318 319 318 318 319 319 319 318 314 306 306 308 308 308 308 307 307 307 309